Corpus Christi, TX

9:52 AM CDT on August 29, 2016 (GMT -0500)
Corpus Christi International

Weather History for KCRP - December, 2012

Change the Weather History Date:

Wednesday, December 12, 2012

  Actual Average Record
Temperature  
Mean Temperature 51 °F 59 °F  
Max Temperature 66 °F 69 °F 85 °F (1981)
Min Temperature 35 °F 49 °F 29 °F (1966)
Degree Days  
Heating Degree Days 14 8  
Month to date heating degree days 35 82  
Since 1 July heating degree days 74 183  
Cooling Degree Days 0 2  
Month to date cooling degree days 82 24  
Year to date cooling degree days 4453 3499  
Moisture  
Dew Point 29 °F    
Average Humidity 43    
Maximum Humidity 70    
Minimum Humidity 16    
Precipitation  
Precipitation 0.00 in 0.06 in 1.32 in (1947)
Month to date precipitation 0.01 0.64  
Year to date precipitation 18.80 30.57  
Snow  
Snow 0.00 in - - ()
Month to date snowfall 0.0  
Since 1 July snowfall 0.0  
Snow Depth 0.00 in    
Sea Level Pressure  
Sea Level Pressure 30.26 in    
Wind  
Wind Speed 6 mph (NE)    
Max Wind Speed 13 mph    
Max Gust Speed 16 mph    
Visibility 10 miles    
Events      
T = Trace of Precipitation, MM = Missing Value Source: NWS Daily Summary

Daily Weather History Graph

Daily Weather History Graph

Search for Another Location

Airport or City:

Trip Planner

Search our weather history database for the weather conditions in past years. The results will help you decide how hot, cold, wet, or windy it might be!

Date:

Astronomy

Dec. 12, 2012 Rise Set
Actual Time 7:11 AM CST 5:36 PM CST
Civil Twilight 6:46 AM CST 6:02 PM CST
Nautical Twilight 6:16 AM CST 6:31 PM CST
Astronomical Twilight 5:48 AM CST 6:59 PM CST
Moon 6:19 AM CST (12/12) 5:13 PM CST (12/12)
Length of Visible Light 11h 15m
Length of Day
10h 24m
Waning Crescent, 1% of the Moon is Illuminated
Dec 12
Waning Crescent
Dec 13
New
Dec 19
First Quarter
Dec 28
Full
Jan 4
Last Quarter

Hourly Weather History & Observations

Time (CST) Temp. Windchill Dew Point Humidity Pressure Visibility Wind Dir Wind Speed Gust Speed Precip Events Conditions
12:51 AM 48.9 °F - 30.0 °F 48% 30.23 in 10.0 mi NE 5.8 mph - N/A   Partly Cloudy
1:51 AM 46.9 °F - 28.9 °F 50% 30.24 in 10.0 mi Calm Calm - N/A   Clear
2:51 AM 43.0 °F 39.5 °F 27.0 °F 53% 30.24 in 10.0 mi North 5.8 mph - N/A   Clear
3:51 AM 39.9 °F 35.1 °F 28.9 °F 65% 30.23 in 10.0 mi North 6.9 mph - N/A   Clear
4:51 AM 39.0 °F 32.8 °F 28.9 °F 67% 30.23 in 10.0 mi North 9.2 mph - N/A   Clear
5:51 AM 37.9 °F 32.7 °F 28.0 °F 68% 30.24 in 10.0 mi North 6.9 mph - N/A   Clear
6:51 AM 37.0 °F 32.4 °F 26.1 °F 65% 30.26 in 10.0 mi North 5.8 mph - N/A   Clear
7:51 AM 39.9 °F 35.8 °F 26.1 °F 58% 30.29 in 10.0 mi North 5.8 mph - N/A   Clear
8:51 AM 48.0 °F - 28.0 °F 46% 30.32 in 10.0 mi NNE 8.1 mph - N/A   Clear
9:51 AM 54.0 °F - 27.0 °F 35% 30.34 in 10.0 mi NE 5.8 mph - N/A   Clear
10:51 AM 57.0 °F - 26.1 °F 30% 30.34 in 10.0 mi NE 8.1 mph - N/A   Clear
11:51 AM 61.0 °F - 23.0 °F 23% 30.31 in 10.0 mi NNE 6.9 mph - N/A   Clear
12:51 PM 63.0 °F - 16.0 °F 16% 30.28 in 10.0 mi Variable 5.8 mph - N/A   Clear
1:51 PM 64.9 °F - 19.9 °F 18% 30.26 in 10.0 mi East 8.1 mph - N/A   Clear
2:51 PM 64.0 °F - 26.1 °F 24% 30.24 in 10.0 mi East 10.4 mph - N/A   Clear
3:51 PM 63.0 °F - 28.0 °F 27% 30.23 in 10.0 mi East 10.4 mph - N/A   Clear
4:51 PM 61.0 °F - 35.1 °F 38% 30.23 in 10.0 mi East 11.5 mph - N/A   Clear
5:51 PM 55.9 °F - 34.0 °F 44% 30.24 in 10.0 mi ESE 8.1 mph - N/A   Clear
6:51 PM 52.0 °F - 30.0 °F 43% 30.25 in 10.0 mi SE 4.6 mph - N/A   Clear
7:51 PM 50.0 °F - 32.0 °F 50% 30.25 in 10.0 mi East 3.5 mph - N/A   Clear
8:51 PM 48.0 °F - 36.0 °F 63% 30.26 in 10.0 mi NE 3.5 mph - N/A   Clear
9:51 PM 44.6 °F - 28.4 °F 53% 30.27 in 10.0 mi Calm Calm - N/A   Clear
10:51 PM 45.0 °F 42.6 °F 36.0 °F 71% 30.27 in 10.0 mi North 4.6 mph - N/A   Clear
11:51 PM 46.9 °F - 37.9 °F 71% 30.26 in 10.0 mi North 8.1 mph - N/A   Clear